Regional Weather Roundup
Issued by NWS Newport/Morehead, NC

Current Version | Previous Version | Text Only | Print | Product List | Glossary Off
Versions: 1 2 3 4 5 6 7 8 9 10 11 12 13 14 15 16 17 18 19 20 21 22 23 24 25 26 27 28 29 30 31 32 33 34 35 36 37 38 39 40 41 42 43 44 45 46 47 48 49 50
000 ASUS42 KMHX 240922 RWRMHX WEATHER ROUNDUP FOR EASTERN NORTH CAROLINA NATIONAL WEATHER SERVICE NEWPORT/MOREHEAD CITY NC 400 AM EST MON NOV 24 2014 NOTE: "FAIR" INDICATES FEW OR NO CLOUDS BELOW 12,000 FEET WITH NO SIGNIFICANT WEATHER AND/OR OBSTRUCTIONS TO VISIBILITY NCZ015>017-031-032-045>047-102-103-241000- NORTH COAST CITY SKY/WX TMP DP RH WIND PRES REMARKS EDENTON CLOUDY 65 64 97 S13 29.79F ELIZABETH CITY CLOUDY 70 64 83 S12 29.80F KITTY HAWK RAIN 65 65 97 SE15G24 29.80F MANTEO LGT RAIN 61 60 99 S14G21 29.83S $$ NCZ045>047-081-094-103-104-241000- CENTRAL COAST CITY SKY/WX TMP DP RH WIND PRES REMARKS FRISCO CLOUDY 69 67 93 S22G30 29.85R FOG SWANQUARTER N/A 61 N/A N/A S14 29.79S $$ NCZ095-097-098-100-101-241000- SOUTHERN COAST CITY SKY/WX TMP DP RH WIND PRES REMARKS BEAUFORT CLOUDY 66 65 96 SW12 29.85R CEDAR ISLAND N/A 68 N/A N/A S13G18 29.88R JACKSONVILLE LGT RAIN 67 66 97 S9 29.83S PINEY ISLAND CLOUDY 72 68 87 SW18G29 29.84S WILMINGTON CLOUDY 68 66 93 S9 29.83F $$ NCZ011>013-027>030-043-044-078>080-089-090>093-098-241000- COASTAL PLAIN CITY SKY/WX TMP DP RH WIND PRES REMARKS AHOSKIE CLOUDY 67 65 92 S9 29.78S CLINTON CLOUDY 67 66 95 SW5 29.81S ELIZABETHTOWN CLOUDY 66 65 96 SW3 29.81S GOLDSBORO PTCLDY 67 67 99 S2 29.78S GREENVILLE CLOUDY 68 68 100 S9 29.82R HAVELOCK LGT RAIN 68 66 93 S13G21 29.84S FOG KENANSVILLE CLOUDY 66 65 94 CALM 29.82S KINSTON PTCLDY 68 66 94 S10 29.81S NEW BERN LGT RAIN 70 67 90 SW10 29.84F RICHLANDS CLOUDY 66 64 94 S14 29.82F ROCKY MOUNT MOCLDY 66 64 93 S7 29.78S WASHINGTON MOCLDY 68 66 94 S8 29.80F WHITEVILLE HVY RAIN 66 64 93 SW5 29.81S $$ AMZ130-135-150-152-154-156-158-170-250-252-270-ANZ085-086-088-633-658-670-241000- MARINE OBSERVATIONS STATION/POSITION TIME TEMP WIND PRES WAVE SWELL AIR SEA DIR/SP/G HT/PER HT/PER (UTC) (F) (DEG/KT/KT) (MB) (FT/S) (FT/S) CHESAPEAKE LIGHT 0900 61 180/ 27/ 28 1009.0 64 E VA BEACH 0900 67 61 170/ 23/ 27 1009.3 12/ 9 8/ 9 DUCK 0900 67 56 170/ 24/ 31 1008.4 2 E DUCK 0900 58 N/A 7/ 9 2/11 10 NE DUCK 0900 58 N/A 10/ 9 2/11 OREGON INLET 0900 63 53 160/ 13/ 17 1010.0 13E OREGON INLT 0900 63 N/A 12/ 9 3/11 HATTERAS CG 0900 70 59 190/ 8/ 24 1010.8 DIAMOND BUOY 0900 74 150/ 27/ 33 1009.4 14/10 8/10 17 S OCRACOKE NOT AVBL CAPE LOOKOUT 0900 64 190/ 10/ 11 1010.5 BEAUFORT LAB 0900 65 56 210/ 8/ 11 1009.7 30 SE NEW RIVER 0900 72 69 200/ 16/ 17 1010.6 12/10 10/10 5 SE WRIGHTSVLE 0900 59 60 200/ 4/ 6 1009.6 225 S CAPE HAT 0758 74 73 190/ 21/ 27 1015.8 12/ 8 41 SE CHARLESTON 0900 76 74 210/ 19/ 23 1010.0 11/10 8/10 $$

USA.gov is the U.S. government's official web portal to all federal, state and local government web resources and services.